Year,Month,Day,Hour,Minute,Value (Times are PST for temperature in C)
2010,09,22,00,00,6.80
2010,09,22,00,01,6.80
2010,09,22,00,02,6.80
2010,09,22,00,03,6.80
2010,09,22,00,04,6.80
2010,09,22,00,05,6.80
2010,09,22,00,06,6.80
2010,09,22,00,07,6.80
2010,09,22,00,08,6.80
2010,09,22,00,09,6.80
2010,09,22,00,10,6.80
2010,09,22,00,11,6.80
2010,09,22,00,12,6.80
2010,09,22,00,13,6.80
2010,09,22,00,14,6.70
2010,09,22,00,15,6.70
2010,09,22,00,16,6.70
2010,09,22,00,17,6.70
2010,09,22,00,18,6.70
2010,09,22,00,19,6.70
2010,09,22,00,20,6.70
2010,09,22,00,21,6.70
2010,09,22,00,22,6.70
2010,09,22,00,23,6.70
2010,09,22,00,24,6.70
2010,09,22,00,25,6.70
2010,09,22,00,26,6.70
2010,09,22,00,27,6.70
2010,09,22,00,28,6.70
2010,09,22,00,29,6.70
2010,09,22,00,30,6.70
2010,09,22,00,31,6.70
2010,09,22,00,32,6.60
2010,09,22,00,33,6.60
2010,09,22,00,34,6.60
2010,09,22,00,35,6.60
2010,09,22,00,36,6.60
2010,09,22,00,37,6.60
2010,09,22,00,38,6.60
2010,09,22,00,39,6.60
2010,09,22,00,40,6.60
2010,09,22,00,41,6.60
2010,09,22,00,42,6.60
2010,09,22,00,43,6.50
2010,09,22,00,44,6.50
2010,09,22,00,45,6.50
2010,09,22,00,46,6.50
2010,09,22,00,47,6.40
2010,09,22,00,48,6.40
2010,09,22,00,49,6.40
2010,09,22,00,50,6.40
2010,09,22,00,51,6.40
2010,09,22,00,52,6.40
2010,09,22,00,53,6.40
2010,09,22,00,54,6.40
2010,09,22,00,55,6.40
2010,09,22,00,56,6.40
2010,09,22,00,57,6.40
2010,09,22,00,58,6.40
2010,09,22,00,59,6.30
2010,09,22,01,00,6.30
2010,09,22,01,01,6.30
2010,09,22,01,02,6.30
2010,09,22,01,03,6.30
2010,09,22,01,04,6.30
2010,09,22,01,05,6.30
2010,09,22,01,06,6.30
2010,09,22,01,07,6.30
2010,09,22,01,08,6.30
2010,09,22,01,09,6.30
2010,09,22,01,10,6.30
2010,09,22,01,11,6.30
2010,09,22,01,12,6.30
2010,09,22,01,13,6.30
2010,09,22,01,14,6.30
2010,09,22,01,15,6.30
2010,09,22,01,16,6.30
2010,09,22,01,17,6.20
2010,09,22,01,18,6.20
2010,09,22,01,19,6.20
2010,09,22,01,20,6.20
2010,09,22,01,21,6.20
2010,09,22,01,22,6.20
2010,09,22,01,23,6.20
2010,09,22,01,24,6.20
2010,09,22,01,25,6.20
2010,09,22,01,26,6.20
2010,09,22,01,27,6.20
2010,09,22,01,28,6.20
2010,09,22,01,29,6.20
2010,09,22,01,30,6.20
2010,09,22,01,31,6.20
2010,09,22,01,32,6.20
2010,09,22,01,33,6.20
2010,09,22,01,34,6.10
2010,09,22,01,35,6.10
2010,09,22,01,36,6.10
2010,09,22,01,37,6.10
2010,09,22,01,38,6.10
2010,09,22,01,39,6.10
2010,09,22,01,40,6.10
2010,09,22,01,41,6.10
2010,09,22,01,42,6.10
2010,09,22,01,43,6.10
2010,09,22,01,44,6.10
2010,09,22,01,45,6.10
2010,09,22,01,46,6.10
2010,09,22,01,47,6.10
2010,09,22,01,48,6.10
2010,09,22,01,49,6.10
2010,09,22,01,50,6.10
2010,09,22,01,51,6.00
2010,09,22,01,52,6.00
2010,09,22,01,53,6.00
2010,09,22,01,54,6.00
2010,09,22,01,55,6.00
2010,09,22,01,56,6.00
2010,09,22,01,57,6.00
2010,09,22,01,58,5.90
2010,09,22,01,59,5.90
2010,09,22,02,00,5.90
2010,09,22,02,01,5.90
2010,09,22,02,02,5.90
2010,09,22,02,03,5.90
2010,09,22,02,04,5.90
2010,09,22,02,05,5.90
2010,09,22,02,06,5.90
2010,09,22,02,07,5.90
2010,09,22,02,08,5.90
2010,09,22,02,09,5.90
2010,09,22,02,10,5.90
2010,09,22,02,11,5.90
2010,09,22,02,12,5.90
2010,09,22,02,13,5.90
2010,09,22,02,14,5.90
2010,09,22,02,15,5.90
2010,09,22,02,16,5.90
2010,09,22,02,17,5.90
2010,09,22,02,18,5.90
2010,09,22,02,19,5.90
2010,09,22,02,20,5.90
2010,09,22,02,21,5.90
2010,09,22,02,22,5.90
2010,09,22,02,23,5.90
2010,09,22,02,24,5.90
2010,09,22,02,25,5.90
2010,09,22,02,26,5.90
2010,09,22,02,27,5.90
2010,09,22,02,28,5.90
2010,09,22,02,29,5.80
2010,09,22,02,30,5.80
2010,09,22,02,31,5.80
2010,09,22,02,32,5.80
2010,09,22,02,33,5.80
2010,09,22,02,34,5.80
2010,09,22,02,35,5.80
2010,09,22,02,36,5.80
2010,09,22,02,37,5.80
2010,09,22,02,38,5.80
2010,09,22,02,39,5.80
2010,09,22,02,40,5.80
2010,09,22,02,41,5.80
2010,09,22,02,42,5.80
2010,09,22,02,43,5.80
2010,09,22,02,44,5.80
2010,09,22,02,45,5.80
2010,09,22,02,46,5.80
2010,09,22,02,47,5.70
2010,09,22,02,48,5.70
2010,09,22,02,49,5.70
2010,09,22,02,50,5.70
2010,09,22,02,51,5.70
2010,09,22,02,52,5.70
2010,09,22,02,53,5.70
2010,09,22,02,54,5.70
2010,09,22,02,55,5.70
2010,09,22,02,56,5.60
2010,09,22,02,57,5.60
2010,09,22,02,58,5.60
2010,09,22,02,59,5.60
2010,09,22,03,00,5.60
2010,09,22,03,01,5.60
2010,09,22,03,02,5.50
2010,09,22,03,06,5.50
2010,09,22,03,07,5.50
2010,09,22,03,08,5.50
2010,09,22,03,09,5.50
2010,09,22,03,10,5.50
2010,09,22,03,11,5.50
2010,09,22,03,12,5.40
2010,09,22,03,13,5.50
2010,09,22,03,14,5.40
2010,09,22,03,15,5.40
2010,09,22,03,16,5.40
2010,09,22,03,17,5.40
2010,09,22,03,18,5.40
2010,09,22,03,19,5.40
2010,09,22,03,20,5.40
2010,09,22,03,21,5.40
2010,09,22,03,22,5.40
2010,09,22,03,23,5.40
2010,09,22,03,24,5.40
2010,09,22,03,25,5.40
2010,09,22,03,26,5.30
2010,09,22,03,27,5.30
2010,09,22,03,28,5.30
2010,09,22,03,29,5.30
2010,09,22,03,30,5.30
2010,09,22,03,31,5.30
2010,09,22,03,32,5.30
2010,09,22,03,33,5.30
2010,09,22,03,34,5.30
2010,09,22,03,35,5.30
2010,09,22,03,36,5.30
2010,09,22,03,37,5.30
2010,09,22,03,38,5.30
2010,09,22,03,39,5.30
2010,09,22,03,40,5.30
2010,09,22,03,41,5.20
2010,09,22,03,42,5.20
2010,09,22,03,43,5.20
2010,09,22,03,44,5.20
2010,09,22,03,45,5.20
2010,09,22,03,46,5.20
2010,09,22,03,47,5.20
2010,09,22,03,48,5.20
2010,09,22,03,49,5.20
2010,09,22,03,50,5.20
2010,09,22,03,51,5.10
2010,09,22,03,52,5.10
2010,09,22,03,53,5.10
2010,09,22,03,54,5.10
2010,09,22,03,55,5.10
2010,09,22,03,56,5.10
2010,09,22,03,57,5.10
2010,09,22,03,58,5.10
2010,09,22,03,59,5.10
2010,09,22,04,00,5.10
2010,09,22,04,01,5.10
2010,09,22,04,02,5.00
2010,09,22,04,03,5.00
2010,09,22,04,04,5.00
2010,09,22,04,05,5.10
2010,09,22,04,06,5.10
2010,09,22,04,07,5.10
2010,09,22,04,08,5.10
2010,09,22,04,09,5.10
2010,09,22,04,10,5.10
2010,09,22,04,11,5.10
2010,09,22,04,12,5.10
2010,09,22,04,13,5.10
2010,09,22,04,14,5.10
2010,09,22,04,15,5.10
2010,09,22,04,16,5.10
2010,09,22,04,17,5.10
2010,09,22,04,18,5.10
2010,09,22,04,19,5.10
2010,09,22,04,20,5.10
2010,09,22,04,21,5.10
2010,09,22,04,22,5.10
2010,09,22,04,23,5.10
2010,09,22,04,24,5.10
2010,09,22,04,25,5.10
2010,09,22,04,26,5.10
2010,09,22,04,27,5.10
2010,09,22,04,28,5.10
2010,09,22,04,29,5.10
2010,09,22,04,30,5.10
2010,09,22,04,31,5.10
2010,09,22,04,32,5.10
2010,09,22,04,33,5.10
2010,09,22,04,34,5.10
2010,09,22,04,35,5.00
2010,09,22,04,36,5.00
2010,09,22,04,37,5.00
2010,09,22,04,38,5.00
2010,09,22,04,39,5.00
2010,09,22,04,40,5.00
2010,09,22,04,41,4.90
2010,09,22,04,42,4.90
2010,09,22,04,43,4.90
2010,09,22,04,44,4.90
2010,09,22,04,45,4.90
2010,09,22,04,46,4.90
2010,09,22,04,47,4.90
2010,09,22,04,48,4.90
2010,09,22,04,49,4.90
2010,09,22,04,50,4.90
2010,09,22,04,51,4.90
2010,09,22,04,52,4.90
2010,09,22,04,53,4.90
2010,09,22,04,54,4.90
2010,09,22,04,55,4.90
2010,09,22,04,56,4.90
2010,09,22,04,57,4.90
2010,09,22,04,58,4.90
2010,09,22,04,59,4.90
2010,09,22,05,00,4.90
2010,09,22,05,01,4.80
2010,09,22,05,02,4.80
2010,09,22,05,03,4.80
2010,09,22,05,04,4.80
2010,09,22,05,05,4.90
2010,09,22,05,06,4.80
2010,09,22,05,07,4.80
2010,09,22,05,08,4.80
2010,09,22,05,09,4.80
2010,09,22,05,10,4.80
2010,09,22,05,11,4.80
2010,09,22,05,12,4.80
2010,09,22,05,13,4.80
2010,09,22,05,14,4.80
2010,09,22,05,15,4.80
2010,09,22,05,16,4.80
2010,09,22,05,17,4.80
2010,09,22,05,18,4.80
2010,09,22,05,19,4.80
2010,09,22,05,20,4.80
2010,09,22,05,21,4.80
2010,09,22,05,22,4.80
2010,09,22,05,23,4.80
2010,09,22,05,24,4.80
2010,09,22,05,25,4.80
2010,09,22,05,26,4.80
2010,09,22,05,27,4.80
2010,09,22,05,28,4.80
2010,09,22,05,29,4.80
2010,09,22,05,30,4.80
2010,09,22,05,31,4.80
2010,09,22,05,32,4.80
2010,09,22,05,33,4.80
2010,09,22,05,34,4.80
2010,09,22,05,35,4.80
2010,09,22,05,36,4.80
2010,09,22,05,37,4.80
2010,09,22,05,38,4.80
2010,09,22,05,39,4.80
2010,09,22,05,40,4.80
2010,09,22,05,41,4.80
2010,09,22,05,42,4.80
2010,09,22,05,43,4.70
2010,09,22,05,44,4.70
2010,09,22,05,45,4.70
2010,09,22,05,46,4.70
2010,09,22,05,47,4.70
2010,09,22,05,48,4.70
2010,09,22,05,49,4.70
2010,09,22,05,50,4.70
2010,09,22,05,51,4.70
2010,09,22,05,52,4.70
2010,09,22,05,53,4.70
2010,09,22,05,54,4.70
2010,09,22,05,55,4.70
2010,09,22,05,56,4.70
2010,09,22,05,57,4.70
2010,09,22,05,58,4.70
2010,09,22,05,59,4.70
2010,09,22,06,00,4.70
2010,09,22,06,01,4.70
2010,09,22,06,02,4.60
2010,09,22,06,03,4.60
2010,09,22,06,04,4.60
2010,09,22,06,05,4.60
2010,09,22,06,06,4.60
2010,09,22,06,07,4.60
2010,09,22,06,08,4.60
2010,09,22,06,09,4.60
2010,09,22,06,10,4.60
2010,09,22,06,11,4.60
2010,09,22,06,12,4.70
2010,09,22,06,13,4.70
2010,09,22,06,14,4.70
2010,09,22,06,15,4.70
2010,09,22,06,16,4.70
2010,09,22,06,17,4.70
2010,09,22,06,18,4.70
2010,09,22,06,19,4.70
2010,09,22,06,20,4.70
2010,09,22,06,21,4.70
2010,09,22,06,22,4.70
2010,09,22,06,23,4.70
2010,09,22,06,24,4.70
2010,09,22,06,25,4.70
2010,09,22,06,26,4.60
2010,09,22,06,27,4.60
2010,09,22,06,28,4.60
2010,09,22,06,29,4.60
2010,09,22,06,30,4.60
2010,09,22,06,31,4.60
2010,09,22,06,32,4.60
2010,09,22,06,33,4.60
2010,09,22,06,34,4.60
2010,09,22,06,35,4.60
2010,09,22,06,36,4.60
2010,09,22,06,37,4.60
2010,09,22,06,38,4.60
2010,09,22,06,39,4.60
2010,09,22,06,40,4.50
2010,09,22,06,41,4.50
2010,09,22,06,42,4.50
2010,09,22,06,43,4.50
2010,09,22,06,44,4.50
2010,09,22,06,45,4.50
2010,09,22,06,46,4.50
2010,09,22,06,47,4.40
2010,09,22,06,48,4.40
2010,09,22,06,49,4.40
2010,09,22,06,50,4.40
2010,09,22,06,51,4.40
2010,09,22,06,52,4.40
2010,09,22,06,53,4.40
2010,09,22,06,54,4.40
2010,09,22,06,55,4.40
2010,09,22,06,56,4.40
2010,09,22,06,57,4.30
2010,09,22,06,58,4.30
2010,09,22,06,59,4.30
2010,09,22,07,00,4.30
2010,09,22,07,01,4.30
2010,09,22,07,02,4.30
2010,09,22,07,03,4.30
2010,09,22,07,04,4.30
2010,09,22,07,05,4.30
2010,09,22,07,06,4.30
2010,09,22,07,07,4.40
2010,09,22,07,08,4.40
2010,09,22,07,09,4.40
2010,09,22,07,10,4.40
2010,09,22,07,11,4.40
2010,09,22,07,12,4.40
2010,09,22,07,13,4.40
2010,09,22,07,14,4.40
2010,09,22,07,15,4.30
2010,09,22,07,16,4.30
2010,09,22,07,17,4.30
2010,09,22,07,18,4.30
2010,09,22,07,19,4.30
2010,09,22,07,20,4.30
2010,09,22,07,21,4.30
2010,09,22,07,22,4.30
2010,09,22,07,23,4.20
2010,09,22,07,24,4.20
2010,09,22,07,25,4.20
2010,09,22,07,26,4.20
2010,09,22,07,27,4.20
2010,09,22,07,28,4.20
2010,09,22,07,29,4.20
2010,09,22,07,30,4.20
2010,09,22,07,31,4.20
2010,09,22,07,32,4.20
2010,09,22,07,33,4.20
2010,09,22,07,34,4.20
2010,09,22,07,35,4.20
2010,09,22,07,36,4.20
2010,09,22,07,37,4.20
2010,09,22,07,38,4.20
2010,09,22,07,39,4.20
2010,09,22,07,40,4.20
2010,09,22,07,41,4.20
2010,09,22,07,42,4.30
2010,09,22,07,43,4.30
2010,09,22,07,44,4.30
2010,09,22,07,45,4.30
2010,09,22,07,46,4.30
2010,09,22,07,47,4.30
2010,09,22,07,48,4.40
2010,09,22,07,49,4.40
2010,09,22,07,50,4.40
2010,09,22,07,51,4.40
2010,09,22,07,52,4.40
2010,09,22,07,53,4.50
2010,09,22,07,54,4.50
2010,09,22,07,55,4.50
2010,09,22,07,56,4.60
2010,09,22,07,57,4.60
2010,09,22,07,58,4.70
2010,09,22,07,59,4.70
2010,09,22,08,00,4.70
2010,09,22,08,01,4.80
2010,09,22,08,02,4.80
2010,09,22,08,03,4.80
2010,09,22,08,04,4.80
2010,09,22,08,05,4.80
2010,09,22,08,06,4.90
2010,09,22,08,07,4.90
2010,09,22,08,08,4.90
2010,09,22,08,09,4.90
2010,09,22,08,10,4.90
2010,09,22,08,11,5.00
2010,09,22,08,12,5.00
2010,09,22,08,13,5.00
2010,09,22,08,14,5.10
2010,09,22,08,15,5.10
2010,09,22,08,16,5.10
2010,09,22,08,17,5.10
2010,09,22,08,18,5.10
2010,09,22,08,19,5.10
2010,09,22,08,20,5.10
2010,09,22,08,21,5.10
2010,09,22,08,22,5.10
2010,09,22,08,23,5.10
2010,09,22,08,24,5.20
2010,09,22,08,25,5.20
2010,09,22,08,26,5.20
2010,09,22,08,27,5.20
2010,09,22,08,28,5.20
2010,09,22,08,29,5.20
2010,09,22,08,30,5.20
2010,09,22,08,31,5.20
2010,09,22,08,32,5.30
2010,09,22,08,33,5.30
2010,09,22,08,34,5.30
2010,09,22,08,35,5.30
2010,09,22,08,36,5.30
2010,09,22,08,37,5.40
2010,09,22,08,38,5.40
2010,09,22,08,39,5.40
2010,09,22,08,40,5.40
2010,09,22,08,41,5.50
2010,09,22,08,42,5.50
2010,09,22,08,43,5.60
2010,09,22,08,44,5.60
2010,09,22,08,45,5.70
2010,09,22,08,46,5.70
2010,09,22,08,47,5.80
2010,09,22,08,48,5.80
2010,09,22,08,49,5.80
2010,09,22,08,50,5.90
2010,09,22,08,51,6.00
2010,09,22,08,52,6.00
2010,09,22,08,53,6.10
2010,09,22,08,54,6.10
2010,09,22,08,55,6.20
2010,09,22,08,56,6.20
2010,09,22,08,57,6.20
2010,09,22,08,58,6.30
2010,09,22,08,59,6.30
2010,09,22,09,00,6.30
2010,09,22,09,01,6.30
2010,09,22,09,02,6.40
2010,09,22,09,03,6.40
2010,09,22,09,04,6.40
2010,09,22,09,05,6.50
2010,09,22,09,06,6.50
2010,09,22,09,07,6.50
2010,09,22,09,08,6.60
2010,09,22,09,09,6.60
2010,09,22,09,10,6.60
2010,09,22,09,11,6.70
2010,09,22,09,12,6.70
2010,09,22,09,13,6.70
2010,09,22,09,14,6.80
2010,09,22,09,15,6.80
2010,09,22,09,16,6.90
2010,09,22,09,17,6.90
2010,09,22,09,18,7.00
2010,09,22,09,19,7.00
2010,09,22,09,20,7.10
2010,09,22,09,21,7.20
2010,09,22,09,22,7.20
2010,09,22,09,23,7.20
2010,09,22,09,24,7.30
2010,09,22,09,25,7.30
2010,09,22,09,26,7.40
2010,09,22,09,27,7.40
2010,09,22,09,28,7.40
2010,09,22,09,29,7.50
2010,09,22,09,30,7.60
2010,09,22,09,31,7.60
2010,09,22,09,32,7.70
2010,09,22,09,33,7.80
2010,09,22,09,34,7.90
2010,09,22,09,35,8.00
2010,09,22,09,36,8.10
2010,09,22,09,37,8.20
2010,09,22,09,38,8.20
2010,09,22,09,39,8.30
2010,09,22,09,40,8.40
2010,09,22,09,41,8.50
2010,09,22,09,42,8.60
2010,09,22,09,43,8.80
2010,09,22,09,44,8.90
2010,09,22,09,45,9.00
2010,09,22,09,46,9.10
2010,09,22,09,47,9.20
2010,09,22,09,48,9.30
2010,09,22,09,49,9.50
2010,09,22,09,50,9.60
2010,09,22,09,51,9.70
2010,09,22,09,52,9.80
2010,09,22,09,53,10.00
2010,09,22,09,54,10.10
2010,09,22,09,55,10.20
2010,09,22,09,56,10.30
2010,09,22,09,57,10.40
2010,09,22,09,58,10.50
2010,09,22,09,59,10.60
2010,09,22,10,00,10.70
2010,09,22,10,01,10.80
2010,09,22,10,02,10.90
2010,09,22,10,03,11.00
2010,09,22,10,04,11.10
2010,09,22,10,05,11.10
2010,09,22,10,06,11.20
2010,09,22,10,07,11.30
2010,09,22,10,08,11.30
2010,09,22,10,09,11.40
2010,09,22,10,10,11.50
2010,09,22,10,11,11.60
2010,09,22,10,12,11.60
2010,09,22,10,13,11.80
2010,09,22,10,14,11.80
2010,09,22,10,15,11.90
2010,09,22,10,16,12.00
2010,09,22,10,17,12.00
2010,09,22,10,18,12.10
2010,09,22,10,19,12.10
2010,09,22,10,20,12.20
2010,09,22,10,21,12.20
2010,09,22,10,22,12.30
2010,09,22,10,23,12.40
2010,09,22,10,24,12.50
2010,09,22,10,25,12.50
2010,09,22,10,26,12.50
2010,09,22,10,27,12.60
2010,09,22,10,28,12.60
2010,09,22,10,29,12.70
2010,09,22,10,30,12.70
2010,09,22,10,31,12.80
2010,09,22,10,32,12.80
2010,09,22,10,33,12.90
2010,09,22,10,34,12.90
2010,09,22,10,35,13.00
2010,09,22,10,36,13.00
2010,09,22,10,37,13.10
2010,09,22,10,38,13.10
2010,09,22,10,39,13.10
2010,09,22,10,40,13.10
2010,09,22,10,41,13.10
2010,09,22,10,42,13.10
2010,09,22,10,43,13.10
2010,09,22,10,44,13.10
2010,09,22,10,45,13.10
2010,09,22,10,46,13.10
2010,09,22,10,47,13.10
2010,09,22,10,48,13.10
2010,09,22,10,49,13.20
2010,09,22,10,50,13.20
2010,09,22,10,51,13.20
2010,09,22,10,52,13.20
2010,09,22,10,53,13.20
2010,09,22,10,54,13.20
2010,09,22,10,55,13.30
2010,09,22,10,56,13.30
2010,09,22,10,57,13.30
2010,09,22,10,58,13.30
2010,09,22,10,59,13.40
2010,09,22,11,00,13.40
2010,09,22,11,01,13.40
2010,09,22,11,02,13.50
2010,09,22,11,03,13.50
2010,09,22,11,04,13.40
2010,09,22,11,05,13.40
2010,09,22,11,06,13.40
2010,09,22,11,07,13.40
2010,09,22,11,08,13.40
2010,09,22,11,09,13.50
2010,09,22,11,10,13.50
2010,09,22,11,11,13.60
2010,09,22,11,12,13.70
2010,09,22,11,13,13.70
2010,09,22,11,14,13.80
2010,09,22,11,15,13.80
2010,09,22,11,16,13.90
2010,09,22,11,17,13.90
2010,09,22,11,18,14.00
2010,09,22,11,19,14.10
2010,09,22,11,20,14.20
2010,09,22,11,21,14.20
2010,09,22,11,22,14.20
2010,09,22,11,23,14.20
2010,09,22,11,24,14.20
2010,09,22,11,25,14.20
2010,09,22,11,26,14.20
2010,09,22,11,27,14.20
2010,09,22,11,28,14.30
2010,09,22,11,29,14.30
2010,09,22,11,30,14.30
2010,09,22,11,31,14.30
2010,09,22,11,32,14.30
2010,09,22,11,33,14.40
2010,09,22,11,34,14.40
2010,09,22,11,35,14.40
2010,09,22,11,36,14.40
2010,09,22,11,37,14.50
2010,09,22,11,38,14.50
2010,09,22,11,39,14.60
2010,09,22,11,40,14.70
2010,09,22,11,41,14.70
2010,09,22,11,42,14.70
2010,09,22,11,43,14.80
2010,09,22,11,44,14.80
2010,09,22,11,45,14.80
2010,09,22,11,46,14.80
2010,09,22,11,47,14.80
2010,09,22,11,48,14.80
2010,09,22,11,49,14.80
2010,09,22,11,50,14.80
2010,09,22,11,51,14.80
2010,09,22,11,52,14.80
2010,09,22,11,53,14.80
2010,09,22,11,54,14.90
2010,09,22,11,55,14.90
2010,09,22,11,56,14.90
2010,09,22,11,57,14.80
2010,09,22,11,58,14.80
2010,09,22,11,59,14.70
2010,09,22,12,00,14.80
2010,09,22,12,01,14.80
2010,09,22,12,02,14.90
2010,09,22,12,03,14.90
2010,09,22,12,04,15.00
2010,09,22,12,05,15.00
2010,09,22,12,06,15.00
2010,09,22,12,07,15.00
2010,09,22,12,08,15.20
2010,09,22,12,09,15.20
2010,09,22,12,10,15.20
2010,09,22,12,11,15.20
2010,09,22,12,12,15.10
2010,09,22,12,13,15.10
2010,09,22,12,14,15.20
2010,09,22,12,15,15.20
2010,09,22,12,16,15.20
2010,09,22,12,17,15.30
2010,09,22,12,18,15.30
2010,09,22,12,19,15.30
2010,09,22,12,20,15.30
2010,09,22,12,21,15.30
2010,09,22,12,22,15.30
2010,09,22,12,23,15.30
2010,09,22,12,24,15.30
2010,09,22,12,25,15.30
2010,09,22,12,26,15.30
2010,09,22,12,27,15.40
2010,09,22,12,28,15.40
2010,09,22,12,29,15.40
2010,09,22,12,30,15.40
2010,09,22,12,31,15.50
2010,09,22,12,32,15.50
2010,09,22,12,33,15.60
2010,09,22,12,34,15.60
2010,09,22,12,35,15.60
2010,09,22,12,36,15.60
2010,09,22,12,37,15.60
2010,09,22,12,38,15.60
2010,09,22,12,39,15.70
2010,09,22,12,40,15.70
2010,09,22,12,41,15.70
2010,09,22,12,42,15.70
2010,09,22,12,43,15.80
2010,09,22,12,44,15.80
2010,09,22,12,45,15.80
2010,09,22,12,46,15.80
2010,09,22,12,47,15.80
2010,09,22,12,48,15.80
2010,09,22,12,49,15.90
2010,09,22,12,50,15.90
2010,09,22,12,51,15.90
2010,09,22,12,52,16.00
2010,09,22,12,53,16.00
2010,09,22,12,54,16.10
2010,09,22,12,55,16.10
2010,09,22,12,56,16.20
2010,09,22,12,57,16.20
2010,09,22,12,58,16.20
2010,09,22,12,59,16.30
2010,09,22,13,00,16.30
2010,09,22,13,01,16.30
2010,09,22,13,02,16.30
2010,09,22,13,03,16.30
2010,09,22,13,04,16.30
2010,09,22,13,05,16.30
2010,09,22,13,06,16.30
2010,09,22,13,07,16.30
2010,09,22,13,08,16.20
2010,09,22,13,09,16.20
2010,09,22,13,10,16.20
2010,09,22,13,11,16.20
2010,09,22,13,12,16.30
2010,09,22,13,13,16.30
2010,09,22,13,14,16.30
2010,09,22,13,15,16.40
2010,09,22,13,16,16.40
2010,09,22,13,17,16.40
2010,09,22,13,18,16.50
2010,09,22,13,19,16.50
2010,09,22,13,20,16.50
2010,09,22,13,21,16.50
2010,09,22,13,22,16.60
2010,09,22,13,23,16.60
2010,09,22,13,24,16.50
2010,09,22,13,25,16.50
2010,09,22,13,26,16.50
2010,09,22,13,27,16.40
2010,09,22,13,28,16.40
2010,09,22,13,29,16.40
2010,09,22,13,30,16.40
2010,09,22,13,31,16.40
2010,09,22,13,32,16.40
2010,09,22,13,33,16.40
2010,09,22,13,34,16.40
2010,09,22,13,35,16.40
2010,09,22,13,36,16.40
2010,09,22,13,37,16.40
2010,09,22,13,38,16.40
2010,09,22,13,39,16.50
2010,09,22,13,40,16.50
2010,09,22,13,41,16.50
2010,09,22,13,42,16.60
2010,09,22,13,43,16.60
2010,09,22,13,44,16.70
2010,09,22,13,45,16.70
2010,09,22,13,46,16.70
2010,09,22,13,47,16.80
2010,09,22,13,48,16.80
2010,09,22,13,49,16.80
2010,09,22,13,50,16.80
2010,09,22,13,51,16.80
2010,09,22,13,52,16.70
2010,09,22,13,53,16.70
2010,09,22,13,54,16.70
2010,09,22,13,55,16.70
2010,09,22,13,56,16.70
2010,09,22,13,57,16.70
2010,09,22,13,58,16.80
2010,09,22,13,59,16.80
2010,09,22,14,00,16.80
2010,09,22,14,01,16.80
2010,09,22,14,02,16.80
2010,09,22,14,03,16.80
2010,09,22,14,04,16.80
2010,09,22,14,05,16.80
2010,09,22,14,06,16.80
2010,09,22,14,07,16.80
2010,09,22,14,08,16.80
2010,09,22,14,09,16.80
2010,09,22,14,10,16.70
2010,09,22,14,11,16.70
2010,09,22,14,12,16.70
2010,09,22,14,13,16.70
2010,09,22,14,14,16.70
2010,09,22,14,15,16.70
2010,09,22,14,16,16.70
2010,09,22,14,17,16.70
2010,09,22,14,18,16.70
2010,09,22,14,19,16.70
2010,09,22,14,20,16.70
2010,09,22,14,21,16.60
2010,09,22,14,22,16.60
2010,09,22,14,23,16.70
2010,09,22,14,24,16.70
2010,09,22,14,25,16.70
2010,09,22,14,26,16.70
2010,09,22,14,27,16.70
2010,09,22,14,28,16.70
2010,09,22,14,29,16.70
2010,09,22,14,30,16.80
2010,09,22,14,31,16.80
2010,09,22,14,32,16.80
2010,09,22,14,33,16.80
2010,09,22,14,34,16.80
2010,09,22,14,35,16.80
2010,09,22,14,36,16.90
2010,09,22,14,37,16.90
2010,09,22,14,38,16.90
2010,09,22,14,39,16.90
2010,09,22,14,40,16.90
2010,09,22,14,41,16.90
2010,09,22,14,42,16.90
2010,09,22,14,43,16.80
2010,09,22,14,44,16.70
2010,09,22,14,45,16.70
2010,09,22,14,46,16.70
2010,09,22,14,47,16.70
2010,09,22,14,48,16.70
2010,09,22,14,49,16.70
2010,09,22,14,50,16.70
2010,09,22,14,51,16.60
2010,09,22,14,52,16.60
2010,09,22,14,53,16.60
2010,09,22,14,54,16.60
2010,09,22,14,55,16.60
2010,09,22,14,56,16.70
2010,09,22,14,57,16.70
2010,09,22,14,58,16.80
2010,09,22,14,59,16.80
2010,09,22,15,00,16.80
2010,09,22,15,01,16.80
2010,09,22,15,02,16.80
2010,09,22,15,03,16.70
2010,09,22,15,04,16.70
2010,09,22,15,05,16.60
2010,09,22,15,06,16.60
2010,09,22,15,07,16.60
2010,09,22,15,08,16.60
2010,09,22,15,09,16.60
2010,09,22,15,10,16.50
2010,09,22,15,11,16.50
2010,09,22,15,12,16.50
2010,09,22,15,13,16.50
2010,09,22,15,14,16.50
2010,09,22,15,15,16.50
2010,09,22,15,16,16.50
2010,09,22,15,17,16.60
2010,09,22,15,18,16.60
2010,09,22,15,19,16.70
2010,09,22,15,20,16.80
2010,09,22,15,21,16.90
2010,09,22,15,22,16.90
2010,09,22,15,23,16.90
2010,09,22,15,24,16.90
2010,09,22,15,25,16.90
2010,09,22,15,26,16.90
2010,09,22,15,27,16.90
2010,09,22,15,28,16.90
2010,09,22,15,29,16.90
2010,09,22,15,30,16.90
2010,09,22,15,31,17.00
2010,09,22,15,32,17.00
2010,09,22,15,33,17.00
2010,09,22,15,34,17.00
2010,09,22,15,35,17.00
2010,09,22,15,36,16.90
2010,09,22,15,37,16.90
2010,09,22,15,38,16.90
2010,09,22,15,39,16.90
2010,09,22,15,40,16.90
2010,09,22,15,41,16.90
2010,09,22,15,42,16.90
2010,09,22,15,43,16.90
2010,09,22,15,44,16.90
2010,09,22,15,45,16.90
2010,09,22,15,46,16.90
2010,09,22,15,47,16.90
2010,09,22,15,48,16.90
2010,09,22,15,49,16.90
2010,09,22,15,50,16.90
2010,09,22,15,51,16.90
2010,09,22,15,52,16.90
2010,09,22,15,53,16.90
2010,09,22,15,54,16.90
2010,09,22,15,55,16.80
2010,09,22,15,56,16.80
2010,09,22,15,57,16.80
2010,09,22,15,58,16.80
2010,09,22,15,59,16.80
2010,09,22,16,00,16.70
2010,09,22,16,01,16.70
2010,09,22,16,02,16.80
2010,09,22,16,03,16.80
2010,09,22,16,04,16.80
2010,09,22,16,05,16.80
2010,09,22,16,06,16.80
2010,09,22,16,07,16.80
2010,09,22,16,08,16.70
2010,09,22,16,09,16.70
2010,09,22,16,10,16.70
2010,09,22,16,11,16.60
2010,09,22,16,12,16.60
2010,09,22,16,13,16.60
2010,09,22,16,14,16.70
2010,09,22,16,15,16.70
2010,09,22,16,16,16.60
2010,09,22,16,17,16.70
2010,09,22,16,18,16.70
2010,09,22,16,19,16.70
2010,09,22,16,20,16.80
2010,09,22,16,21,16.80
2010,09,22,16,22,16.80
2010,09,22,16,23,16.80
2010,09,22,16,24,16.90
2010,09,22,16,25,16.90
2010,09,22,16,26,16.90
2010,09,22,16,27,16.90
2010,09,22,16,28,16.90
2010,09,22,16,29,16.90
2010,09,22,16,30,16.90
2010,09,22,16,31,16.90
2010,09,22,16,32,16.90
2010,09,22,16,33,16.90
2010,09,22,16,34,16.90
2010,09,22,16,35,16.80
2010,09,22,16,36,16.80
2010,09,22,16,37,16.80
2010,09,22,16,38,16.80
2010,09,22,16,39,16.80
2010,09,22,16,40,16.80
2010,09,22,16,41,16.80
2010,09,22,16,42,16.80
2010,09,22,16,43,16.80
2010,09,22,16,44,16.80
2010,09,22,16,45,16.80
2010,09,22,16,46,16.80
2010,09,22,16,47,16.90
2010,09,22,16,48,16.90
2010,09,22,16,49,16.90
2010,09,22,16,50,17.00
2010,09,22,16,51,17.00
2010,09,22,16,52,17.00
2010,09,22,16,53,17.00
2010,09,22,16,54,17.00
2010,09,22,16,55,17.00
2010,09,22,16,56,16.90
2010,09,22,16,57,16.90
2010,09,22,16,58,16.80
2010,09,22,16,59,16.80
2010,09,22,17,00,16.70
2010,09,22,17,01,16.70
2010,09,22,17,02,16.70
2010,09,22,17,03,16.70
2010,09,22,17,04,16.70
2010,09,22,17,05,16.70
2010,09,22,17,06,16.70
2010,09,22,17,07,16.70
2010,09,22,17,08,16.70
2010,09,22,17,09,16.70
2010,09,22,17,10,16.70
2010,09,22,17,11,16.70
2010,09,22,17,12,16.70
2010,09,22,17,13,16.70
2010,09,22,17,14,16.60
2010,09,22,17,15,16.60
2010,09,22,17,16,16.60
2010,09,22,17,17,16.60
2010,09,22,17,18,16.60
2010,09,22,17,19,16.60
2010,09,22,17,20,16.60
2010,09,22,17,21,16.60
2010,09,22,17,22,16.60
2010,09,22,17,23,16.60
2010,09,22,17,24,16.60
2010,09,22,17,25,16.60
2010,09,22,17,26,16.60
2010,09,22,17,27,16.60
2010,09,22,17,28,16.50
2010,09,22,17,29,16.50
2010,09,22,17,30,16.50
2010,09,22,17,31,16.40
2010,09,22,17,32,16.40
2010,09,22,17,33,16.40
2010,09,22,17,34,16.30
2010,09,22,17,35,16.30
2010,09,22,17,36,16.20
2010,09,22,17,37,16.20
2010,09,22,17,38,16.10
2010,09,22,17,39,16.10
2010,09,22,17,40,16.00
2010,09,22,17,41,16.00
2010,09,22,17,42,15.90
2010,09,22,17,43,15.90
2010,09,22,17,44,15.90
2010,09,22,17,45,15.90
2010,09,22,17,46,15.80
2010,09,22,17,47,15.80
2010,09,22,17,48,15.80